Charlevoix, MI

2:48 PM EDT on May 29, 2017 (GMT -0400)
Charlevoix Municipal

Weather History for KCVX - January, 2013

Change the Weather History Date:

Friday, January 4, 2013

  Actual Average Record
Temperature  
Mean Temperature 32 °F -  
Max Temperature 36 °F 36 °F 46 °F (2007)
Min Temperature 27 °F 19 °F 6 °F (2016)
Degree Days  
Heating Degree Days 34    
Moisture  
Dew Point 24 °F    
Average Humidity 78    
Maximum Humidity 86    
Minimum Humidity 64    
Precipitation  
Precipitation 0.00 in - - ()
Sea Level Pressure  
Sea Level Pressure 29.92 in    
Wind  
Wind Speed 19 mph (WSW)    
Max Wind Speed 28 mph    
Max Gust Speed 39 mph    
Visibility 10 miles    
Events      
Averages and records for this station are not official NWS values.
T = Trace of Precipitation, MM = Missing Value Source: NWS Daily Summary

Daily Weather History Graph

Daily Weather History Graph

Search for Another Location

Airport or City:

Trip Planner

Search our weather history database for the weather conditions in past years. The results will help you decide how hot, cold, wet, or windy it might be!

Date:

Astronomy

Jan. 04, 2013 Rise Set
Actual Time 8:20 AM EST 5:12 PM EST
Civil Twilight 7:46 AM EST 5:46 PM EST
Nautical Twilight 7:09 AM EST 6:23 PM EST
Astronomical Twilight 6:33 AM EST 6:58 PM EST
Moon 12:06 AM EST (1/4) 11:40 AM EST (1/4)
Length of Visible Light 9h 59m
Length of Day
8h 51m
Waning Gibbous, 55% of the Moon is Illuminated
Jan 4
Waning Gibbous
Jan 4
Last Quarter
Jan 11
New
Jan 18
First Quarter
Jan 26
Full

Hourly Weather History & Observations

Time (EST) Temp. Windchill Dew Point Humidity Pressure Visibility Wind Dir Wind Speed Gust Speed Precip Events Conditions
12:14 AM 28.4 °F 14.4 °F 22.6 °F 79% 29.95 in 7.0 mi SW 23.0 mph 32.2 mph N/A   Overcast
12:34 AM 28.9 °F 15.8 °F 23.0 °F 78% 29.94 in 7.0 mi WSW 20.7 mph 29.9 mph N/A   Overcast
12:55 AM 28.8 °F 14.9 °F 23.0 °F 79% 29.91 in 7.0 mi WSW 23.0 mph 34.5 mph N/A   Mostly Cloudy
1:14 AM 28.4 °F 15.1 °F 23.0 °F 80% 29.90 in 7.0 mi SW 20.7 mph 32.2 mph N/A   Scattered Clouds
1:35 AM 28.6 °F 16.0 °F 22.8 °F 79% 29.89 in 10.0 mi SW 18.4 mph 32.2 mph N/A   Clear
1:54 AM 28.2 °F 15.2 °F 22.6 °F 80% 29.88 in 10.0 mi SW 19.6 mph 27.6 mph N/A   Clear
2:14 AM 28.2 °F 14.2 °F 22.1 °F 78% 29.86 in 10.0 mi SW 23.0 mph 29.9 mph N/A   Clear
2:35 AM 28.4 °F 15.4 °F 21.9 °F 77% 29.85 in 10.0 mi SW 19.6 mph 27.6 mph N/A   Clear
2:55 AM 28.4 °F 15.4 °F 21.9 °F 77% 29.86 in 10.0 mi SW 19.6 mph 32.2 mph N/A   Clear
3:15 AM 28.4 °F 15.8 °F 21.7 °F 76% 29.87 in 10.0 mi WSW 18.4 mph 27.6 mph N/A   Clear
3:34 AM 28.9 °F 15.4 °F 22.1 °F 76% 29.87 in 7.0 mi SW 21.9 mph 31.1 mph N/A   Scattered Clouds
3:55 AM 29.1 °F 16.0 °F 23.0 °F 78% 29.87 in 10.0 mi SW 20.7 mph 31.1 mph N/A   Scattered Clouds
4:14 AM 29.3 °F 15.3 °F 23.5 °F 79% 29.87 in 7.0 mi WSW 24.2 mph 33.4 mph N/A   Scattered Clouds
4:35 AM 29.3 °F 14.5 °F 23.7 °F 80% 29.87 in 5.0 mi WSW 27.6 mph 39.1 mph N/A   Haze
4:54 AM 29.3 °F 15.6 °F 23.7 °F 80% 29.87 in 5.0 mi WSW 23.0 mph 36.8 mph N/A   Haze
5:15 AM 29.1 °F 16.0 °F 23.0 °F 78% 29.87 in 7.0 mi WSW 20.7 mph 39.1 mph N/A   Scattered Clouds
5:55 AM 28.4 °F 13.5 °F 21.9 °F 77% 29.87 in 7.0 mi WSW 26.5 mph 36.8 mph N/A   Scattered Clouds
6:14 AM 28.0 °F 14.9 °F 22.1 °F 78% 29.87 in 10.0 mi WSW 19.6 mph 32.2 mph N/A   Mostly Cloudy
6:35 AM 28.0 °F 13.6 °F 21.4 °F 76% 29.88 in 10.0 mi WSW 24.2 mph 33.4 mph N/A   Overcast
6:54 AM 27.9 °F 13.4 °F 21.9 °F 78% 29.87 in 10.0 mi West 24.2 mph 28.8 mph N/A   Overcast
7:15 AM 27.7 °F 15.2 °F 21.4 °F 77% 29.87 in 10.0 mi WSW 17.3 mph 28.8 mph N/A   Overcast
7:34 AM 27.5 °F 13.5 °F 21.2 °F 77% 29.87 in 10.0 mi West 21.9 mph 28.8 mph N/A   Overcast
7:54 AM 27.5 °F 14.2 °F 21.2 °F 77% 29.87 in 10.0 mi WSW 19.6 mph 27.6 mph N/A   Overcast
8:14 AM 27.7 °F 14.5 °F 21.7 °F 78% 29.87 in 10.0 mi West 19.6 mph 29.9 mph N/A   Overcast
8:35 AM 27.5 °F 13.9 °F 21.9 °F 80% 29.88 in 10.0 mi WSW 20.7 mph 29.9 mph N/A   Overcast
8:55 AM 27.5 °F 15.0 °F 22.1 °F 80% 29.87 in 10.0 mi WSW 17.3 mph 26.5 mph N/A   Overcast
9:14 AM 27.5 °F 13.5 °F 21.9 °F 80% 29.88 in 10.0 mi WSW 21.9 mph 28.8 mph N/A   Overcast
9:35 AM 27.5 °F 14.6 °F 21.9 °F 80% 29.89 in 10.0 mi West 18.4 mph 23.0 mph N/A   Overcast
9:55 AM 27.5 °F 14.6 °F 22.1 °F 80% 29.89 in 10.0 mi West 18.4 mph - N/A   Overcast
10:15 AM 27.5 °F 16.8 °F 21.9 °F 80% 29.90 in 10.0 mi West 12.7 mph 21.9 mph N/A   Overcast
10:35 AM 27.7 °F 16.6 °F 22.1 °F 80% 29.90 in 10.0 mi WSW 13.8 mph 20.7 mph N/A   Overcast
10:54 AM 27.5 °F 15.9 °F 22.1 °F 80% 29.91 in 10.0 mi WSW 15.0 mph 23.0 mph N/A   Overcast
11:15 AM 27.5 °F 16.3 °F 22.1 °F 80% 29.91 in 10.0 mi WSW 13.8 mph 24.2 mph N/A   Overcast
11:35 AM 27.5 °F 15.9 °F 22.1 °F 80% 29.90 in 10.0 mi WSW 15.0 mph 21.9 mph N/A   Overcast
11:54 AM 27.5 °F 15.9 °F 22.1 °F 80% 29.90 in 10.0 mi WSW 15.0 mph 20.7 mph N/A   Overcast
12:15 PM 27.5 °F 15.9 °F 22.3 °F 81% 29.89 in 10.0 mi SW 15.0 mph 19.6 mph N/A   Overcast
12:35 PM 27.3 °F 16.6 °F 22.1 °F 81% 29.89 in 10.0 mi SW 12.7 mph 23.0 mph N/A   Overcast
12:54 PM 27.3 °F 16.1 °F 21.9 °F 80% 29.88 in 10.0 mi WSW 13.8 mph 24.2 mph N/A   Overcast
1:15 PM 27.5 °F 15.4 °F 22.5 °F 81% 29.87 in 10.0 mi WSW 16.1 mph 25.3 mph N/A   Overcast
1:35 PM 27.5 °F 15.4 °F 22.8 °F 83% 29.87 in 10.0 mi SW 16.1 mph 24.2 mph N/A   Overcast
1:54 PM 27.5 °F 13.9 °F 22.8 °F 83% 29.87 in 10.0 mi WSW 20.7 mph 28.8 mph N/A   Overcast
2:15 PM 27.5 °F 13.9 °F 23.5 °F 85% 29.87 in 10.0 mi SW 20.7 mph 25.3 mph N/A   Overcast
2:35 PM 27.5 °F 13.9 °F 23.7 °F 86% 29.88 in 10.0 mi WSW 20.7 mph 29.9 mph N/A   Overcast
2:55 PM 27.9 °F 15.9 °F 23.7 °F 84% 29.89 in 10.0 mi SW 16.1 mph 27.6 mph N/A   Overcast
3:15 PM 28.4 °F 15.4 °F 24.3 °F 84% 29.88 in 10.0 mi SW 19.6 mph 23.0 mph N/A   Overcast
3:34 PM 28.8 °F 16.6 °F 24.4 °F 84% 29.89 in 10.0 mi WSW 17.3 mph 27.6 mph N/A   Overcast
3:55 PM 29.3 °F 17.0 °F 25.2 °F 85% 29.91 in 10.0 mi WSW 18.4 mph 26.5 mph N/A   Overcast
4:15 PM 29.8 °F 18.9 °F 25.9 °F 85% 29.92 in 10.0 mi WSW 15.0 mph 27.6 mph N/A   Overcast
4:34 PM 30.2 °F 17.8 °F 26.4 °F 86% 29.92 in 10.0 mi WSW 19.6 mph 25.3 mph N/A   Overcast
4:55 PM 30.7 °F 19.6 °F 26.8 °F 85% 29.93 in 10.0 mi WSW 16.1 mph 24.2 mph N/A   Mostly Cloudy
5:14 PM 30.9 °F 19.8 °F 26.2 °F 83% 29.93 in 10.0 mi WSW 16.1 mph 23.0 mph N/A   Mostly Cloudy
5:34 PM 30.7 °F 20.4 °F 26.2 °F 83% 29.93 in 10.0 mi WSW 13.8 mph - N/A   Scattered Clouds
5:55 PM 31.1 °F 21.4 °F 26.4 °F 83% 29.94 in 10.0 mi WSW 12.7 mph 20.7 mph N/A   Clear
6:14 PM 31.1 °F 21.9 °F 26.4 °F 83% 29.95 in 10.0 mi SW 11.5 mph 17.3 mph N/A   Clear
6:35 PM 32.0 °F 21.6 °F 26.1 °F 79% 29.96 in 10.0 mi WSW 15.0 mph 20.7 mph N/A   Clear
6:54 PM 32.2 °F 22.7 °F 25.5 °F 76% 29.97 in 10.0 mi WSW 12.7 mph - N/A   Clear
7:15 PM 32.9 °F 22.4 °F 26.4 °F 77% 29.98 in 10.0 mi WSW 16.1 mph 20.7 mph N/A   Clear
7:34 PM 32.9 °F 22.4 °F 27.5 °F 81% 29.99 in 10.0 mi WSW 16.1 mph 23.0 mph N/A   Clear
7:55 PM 34.2 °F 23.3 °F 28.4 °F 79% 30.00 in 10.0 mi West 18.4 mph 23.0 mph N/A   Clear
8:14 PM 34.9 °F 24.2 °F 27.0 °F 73% 30.01 in 10.0 mi West 18.4 mph 26.5 mph N/A   Clear
8:35 PM 36.1 °F 25.9 °F 25.3 °F 65% 30.02 in 10.0 mi WNW 18.4 mph 29.9 mph N/A   Scattered Clouds
8:54 PM 36.1 °F 26.9 °F 25.2 °F 64% 30.02 in 10.0 mi NNW 15.0 mph 29.9 mph N/A   Mostly Cloudy
9:15 PM 35.1 °F 25.2 °F 24.8 °F 66% 30.03 in 10.0 mi NW 16.1 mph 20.7 mph N/A   Overcast
9:34 PM 34.7 °F 24.0 °F 24.4 °F 66% 30.03 in 10.0 mi NW 18.4 mph 23.0 mph N/A   Scattered Clouds
9:55 PM 34.3 °F 24.6 °F 24.4 °F 67% 30.04 in 10.0 mi NW 15.0 mph 20.7 mph N/A   Clear
10:14 PM 34.3 °F 24.2 °F 24.6 °F 68% 30.05 in 10.0 mi NW 16.1 mph 23.0 mph N/A   Scattered Clouds
10:35 PM 34.7 °F 25.1 °F 25.7 °F 70% 30.06 in 10.0 mi NNW 15.0 mph 21.9 mph N/A   Mostly Cloudy
10:54 PM 33.6 °F 23.3 °F 25.9 °F 73% 30.06 in 10.0 mi NNW 16.1 mph 20.7 mph N/A   Mostly Cloudy
11:15 PM 32.9 °F 22.4 °F 24.8 °F 72% 30.08 in 10.0 mi NNW 16.1 mph 21.9 mph N/A   Mostly Cloudy
11:35 PM 32.2 °F 21.4 °F 23.7 °F 71% 30.09 in 10.0 mi NNW 16.1 mph - N/A   Mostly Cloudy
11:54 PM 32.2 °F 21.4 °F 23.4 °F 70% 30.10 in 10.0 mi NNW 16.1 mph 23.0 mph N/A   Overcast